Aswan, Egypt

3:27 PM EET on October 20, 2017 (GMT +0200)
Aswan

Weather History for HESN - February, 2013

Change the Weather History Date:

Friday, February 22, 2013

  Actual Average Record
Temperature  
Mean Temperature 70 °F -  
Max Temperature 88 °F 80 °F 91 °F (2005)
Min Temperature 52 °F 56 °F 46 °F (2001)
Cooling Degree Days 5    
Growing Degree Days 20 (Base 50)    
Moisture  
Dew Point 27 °F    
Average Humidity 19    
Maximum Humidity 27    
Minimum Humidity 7    
Precipitation  
Precipitation 0.00 in 0.00 in - ()
Sea Level Pressure  
Sea Level Pressure 29.90 in    
Wind  
Wind Speed 3 mph ()    
Max Wind Speed 12 mph    
Max Gust Speed -    
Visibility 6.0 miles    
Events      
Averages and records for this station are not official NWS values.
T = Trace of Precipitation, MM = Missing Value Source: Averaged Metar Reports

Daily Weather History Graph

Daily Weather History Graph

Search for Another Location

Airport or City:

Trip Planner

Search our weather history database for the weather conditions in past years. The results will help you decide how hot, cold, wet, or windy it might be!

Date:

Astronomy

Feb. 22, 2013 Rise Set
Actual Time 6:16 AM EET 5:48 PM EET
Civil Twilight 5:54 AM EET 6:11 PM EET
Nautical Twilight 5:27 AM EET 6:37 PM EET
Astronomical Twilight 5:01 AM EET 7:03 PM EET
Moon 2:53 PM EET (2/22) 3:33 AM EET (2/22)
Length of Visible Light 12h 17m
Length of Day
11h 31m
Waxing Gibbous, 88% of the Moon is Illuminated
Feb 22
Waxing Gibbous
Feb 25
Full
Mar 4
Last Quarter
Mar 11
New
Mar 19
First Quarter

Hourly Weather History & Observations

Time (EET) Temp. Dew Point Humidity Pressure Visibility Wind Dir Wind Speed Gust Speed Precip Events Conditions
12:00 AM 64.4 °F 23.0 °F 21% 29.92 in - North 3.5 mph - N/A   Clear
1:00 AM 60.8 °F 21.2 °F 22% 29.89 in - Calm Calm - N/A   Clear
2:00 AM 61 °F 22 °F 12% 29.89 in 6 mi Calm Calm - -  
2:00 AM 60.8 °F 21.2 °F 22% 29.89 in - Calm Calm - N/A   Clear
3:00 AM 57.2 °F 19.4 °F 23% 29.89 in - Calm Calm - N/A   Clear
4:00 AM 57.2 °F 17.6 °F 21% 29.86 in - Calm Calm - N/A   Clear
5:00 AM 55.4 °F 17.6 °F 23% 29.86 in - Calm Calm - N/A   Clear
6:00 AM 53.6 °F 15.8 °F 22% 29.89 in - Calm Calm - N/A   Clear
7:00 AM 57.2 °F 23.0 °F 27% 29.89 in - Calm Calm - N/A   Clear
8:00 AM 60 °F 25 °F 15% 29.94 in 6 mi NW 9.2 mph - -  
8:00 AM 60.8 °F 24.8 °F 25% 29.95 in - NW 9.2 mph - N/A   Clear
9:00 AM 64.4 °F 26.6 °F 24% 29.95 in - North 5.8 mph - N/A   Clear
10:00 AM 69.8 °F 28.4 °F 21% 29.98 in - North 5.8 mph - N/A   Clear
11:00 AM 75.2 °F 33.8 °F 22% 29.95 in - North 4.6 mph - N/A   Clear
12:00 PM 82.4 °F 35.6 °F 19% 29.92 in - East 3.5 mph - N/A   Clear
1:00 PM 84.2 °F 33.8 °F 16% 29.89 in - South 8.1 mph - N/A   Clear
2:00 PM 85 °F 36 °F 10% 29.84 in 6 mi SSE 9.2 mph - -   Clear
2:00 PM 86.0 °F 35.6 °F 17% 29.86 in - SSE 9.2 mph - N/A   Clear
3:00 PM 86.0 °F 33.8 °F 15% 29.86 in - SE 10.4 mph - N/A   Clear
4:00 PM 87.8 °F 39.2 °F 18% 29.86 in - South 9.2 mph - N/A   Clear
5:00 PM 82.4 °F 35.6 °F 19% 29.86 in - SE 11.5 mph - N/A   Clear
6:00 PM 78.8 °F 37.4 °F 23% 29.86 in - SE 3.5 mph - N/A   Clear
7:00 PM 80.6 °F 32.0 °F 17% 29.89 in - SSW 3.5 mph - N/A   Clear
8:00 PM 75 °F 24 °F 7% 29.89 in 6 mi Calm Calm - -  
8:00 PM 75.2 °F 23.0 °F 14% 29.92 in - Calm Calm - N/A   Clear
9:00 PM 71.6 °F 21.2 °F 15% 29.92 in - Calm Calm - N/A   Clear
10:00 PM 71.6 °F 21.2 °F 15% 29.95 in - WSW 8.1 mph - N/A   Clear
11:00 PM 68.0 °F 21.2 °F 17% 29.95 in - SW 8.1 mph - N/A   Clear